Location: Newark
(25.0000°N, 73.5000°E)
Time: 23:13:21
(UTC+00:00)

X-37B - Pass Details

Date: 23 June 2021
Orbit: 383 x 392 km, 45.0° (Epoch: 01 July)

Event Time Altitude Azimuth Distance (km) Brightness Sun altitude
Rises 15:49:50 0° 267° (W) 2,247 5.1 -21.8°
Reaches altitude 10° 15:52:36 10° 294° (WNW) 1,395 4.4 -22.2°
Maximum altitude 15:54:22 14° 329° (NNW) 1,177 3.9 -22.5°
Drops below altitude 10° 15:56:09 10° 3° (N) 1,396 3.9 -22.8°
Sets 15:58:56 0° 30° (NNE) 2,250 4.6 -23.3°
